Location: Clair
(33.8067°N, 117.9845°W)
Time: 17:09:14
(UTC+00:00)

Cosmos 2263 Rocket - Pass Details

Date: 14 February 2026
Orbit: 821 x 848 km, 71.0° (Epoch: 8 March)

Event Time Altitude Azimuth Distance (km) Brightness Sun altitude
Rises 13:27:45 0° 335° (NNW) 3,406 5.1 -15.0°
Reaches altitude 10° 13:30:14 10° 333° (NNW) 2,464 4.3 -14.5°
Maximum altitude 13:35:49 65° 252° (WSW) 917 2.1 -13.3°
Drops below altitude 10° 13:41:20 10° 172° (S) 2,433 4.8 -12.2°
Sets 13:43:46 0° 169° (S) 3,359 5.6 -11.7°
